Time,TemperatureF,DewpointF,PressureIn,WindDirection,WindDirectionDegrees,WindSpeedMPH,WindSpeedGustMPH,Humidity,HourlyPrecipIn,Conditions,Clouds,dailyrainin,SoftwareType,DateUTC
2013-06-26 00:09:00,75.4,68.0,29.99,East,94,0.0,2.0,77,0.00,,,0.06,weatherlink.com 1.10,2013-06-26 04:09:00,
2013-06-26 00:24:00,75.2,68.0,29.99,SSE,168,0.0,3.0,77,0.00,,,0.06,weatherlink.com 1.10,2013-06-26 04:24:00,
2013-06-26 00:39:00,75.9,68.0,29.98,NE,53,0.0,4.0,76,0.00,,,0.06,weatherlink.com 1.10,2013-06-26 04:39:00,
2013-06-26 00:54:00,76.6,68.0,29.98,SSW,202,1.0,4.0,74,0.00,,,0.06,weatherlink.com 1.10,2013-06-26 04:54:00,
2013-06-26 01:09:00,77.1,68.0,29.97,SE,138,1.0,4.0,73,0.00,,,0.06,weatherlink.com 1.10,2013-06-26 05:09:00,
2013-06-26 01:24:00,77.1,68.0,29.97,South,180,2.0,4.0,74,0.00,,,0.06,weatherlink.com 1.10,2013-06-26 05:24:00,
2013-06-26 01:39:00,76.8,68.0,29.96,SE,130,0.0,2.0,75,0.00,,,0.06,weatherlink.com 1.10,2013-06-26 05:39:00,
2013-06-26 01:54:00,76.2,69.0,29.96,ESE,113,0.0,3.0,77,0.00,,,0.06,weatherlink.com 1.10,2013-06-26 05:54:00,
2013-06-26 02:09:00,75.9,68.0,29.95,South,172,1.0,5.0,77,0.00,,,0.06,weatherlink.com 1.10,2013-06-26 06:09:00,
2013-06-26 02:24:00,75.6,68.0,29.95,SE,133,0.0,2.0,78,0.00,,,0.06,weatherlink.com 1.10,2013-06-26 06:24:00,
2013-06-26 02:39:00,75.2,68.0,29.95,SE,133,1.0,2.0,79,0.00,,,0.06,weatherlink.com 1.10,2013-06-26 06:39:00,
2013-06-26 02:54:00,74.8,68.0,29.96,SSE,147,1.0,3.0,80,0.00,,,0.06,weatherlink.com 1.10,2013-06-26 06:54:00,
2013-06-26 03:09:00,75.1,69.0,29.96,SSE,149,1.0,5.0,80,0.00,,,0.06,weatherlink.com 1.10,2013-06-26 07:09:00,
2013-06-26 03:24:00,75.2,69.0,29.96,ESE,122,0.0,6.0,80,0.00,,,0.06,weatherlink.com 1.10,2013-06-26 07:24:00,
2013-06-26 03:39:00,75.0,69.0,29.96,ENE,74,4.0,8.0,81,0.00,,,0.06,weatherlink.com 1.10,2013-06-26 07:39:00,
2013-06-26 03:54:00,74.6,69.0,29.96,South,188,0.0,8.0,82,0.00,,,0.06,weatherlink.com 1.10,2013-06-26 07:54:00,
2013-06-26 04:09:00,74.2,68.0,29.96,ESE,103,1.0,8.0,82,0.00,,,0.06,weatherlink.com 1.10,2013-06-26 08:09:00,
2013-06-26 04:24:00,73.7,68.0,29.96,SW,219,3.0,4.0,83,0.00,,,0.06,weatherlink.com 1.10,2013-06-26 08:24:00,
2013-06-26 04:39:00,73.4,68.0,29.97,SE,133,1.0,7.0,84,0.00,,,0.06,weatherlink.com 1.10,2013-06-26 08:39:00,
2013-06-26 04:54:00,73.0,68.0,29.97,North,9,1.0,4.0,85,0.00,,,0.06,weatherlink.com 1.10,2013-06-26 08:54:00,
2013-06-26 05:09:00,72.6,68.0,29.97,ESE,108,1.0,3.0,86,0.00,,,0.06,weatherlink.com 1.10,2013-06-26 09:09:00,
2013-06-26 05:24:00,72.1,68.0,29.98,WSW,255,0.0,5.0,86,0.00,,,0.06,weatherlink.com 1.10,2013-06-26 09:24:00,
2013-06-26 05:39:00,71.8,68.0,29.98,South,177,0.0,4.0,87,0.00,,,0.06,weatherlink.com 1.10,2013-06-26 09:39:00,
2013-06-26 05:54:00,71.5,68.0,29.98,ESE,120,0.0,3.0,87,0.00,,,0.06,weatherlink.com 1.10,2013-06-26 09:54:00,
2013-06-26 06:09:00,71.7,67.0,29.99,SSW,203,1.0,8.0,86,0.00,,,0.06,weatherlink.com 1.10,2013-06-26 10:09:00,
2013-06-26 06:24:00,71.8,68.0,29.99,NE,34,1.0,5.0,86,0.00,,,0.06,weatherlink.com 1.10,2013-06-26 10:24:00,
2013-06-26 06:39:00,71.8,68.0,29.99,SE,138,1.0,5.0,86,0.00,,,0.06,weatherlink.com 1.10,2013-06-26 10:39:00,
2013-06-26 06:54:00,71.7,67.0,29.99,SE,130,0.0,4.0,85,0.00,,,0.06,weatherlink.com 1.10,2013-06-26 10:54:00,
2013-06-26 07:09:00,71.7,67.0,30.00,SSW,197,4.0,8.0,84,0.00,,,0.06,weatherlink.com 1.10,2013-06-26 11:09:00,
2013-06-26 07:24:00,71.6,66.0,30.00,SSW,199,3.0,5.0,83,0.00,,,0.06,weatherlink.com 1.10,2013-06-26 11:24:00,
2013-06-26 07:39:00,72.1,66.0,30.01,East,80,0.0,7.0,82,0.00,,,0.06,weatherlink.com 1.10,2013-06-26 11:39:00,
2013-06-26 07:54:00,73.2,67.0,30.01,South,176,2.0,7.0,80,0.00,,,0.06,weatherlink.com 1.10,2013-06-26 11:54:00,
2013-06-26 08:09:00,74.2,67.0,30.01,ESE,104,1.0,7.0,79,0.00,,,0.06,weatherlink.com 1.10,2013-06-26 12:09:00,
2013-06-26 08:24:00,74.3,67.0,30.01,NE,36,2.0,9.0,77,0.00,,,0.06,weatherlink.com 1.10,2013-06-26 12:24:00,
2013-06-26 08:39:00,74.9,67.0,30.01,SE,127,1.0,4.0,77,0.00,,,0.06,weatherlink.com 1.10,2013-06-26 12:39:00,
2013-06-26 08:54:00,75.0,67.0,30.01,ESE,110,1.0,4.0,77,0.00,,,0.06,weatherlink.com 1.10,2013-06-26 12:54:00,
2013-06-26 09:09:00,74.8,68.0,30.00,WSW,251,2.0,7.0,78,0.00,,,0.06,weatherlink.com 1.10,2013-06-26 13:09:00,
2013-06-26 09:24:00,74.8,67.0,30.01,SSE,167,0.0,8.0,77,0.00,,,0.06,weatherlink.com 1.10,2013-06-26 13:24:00,
2013-06-26 09:39:00,75.2,68.0,30.01,SW,229,0.0,7.0,78,0.00,,,0.06,weatherlink.com 1.10,2013-06-26 13:39:00,
2013-06-26 09:54:00,75.3,68.0,30.00,SW,234,1.0,5.0,77,0.00,,,0.06,weatherlink.com 1.10,2013-06-26 13:54:00,
2013-06-26 10:09:00,76.3,67.0,30.00,South,176,5.0,6.0,74,0.00,,,0.06,weatherlink.com 1.10,2013-06-26 14:09:00,
2013-06-26 10:24:00,76.2,68.0,30.00,SSE,160,2.0,5.0,75,0.00,,,0.06,weatherlink.com 1.10,2013-06-26 14:24:00,
2013-06-26 10:39:00,77.1,68.0,30.01,SE,127,1.0,6.0,73,0.00,,,0.06,weatherlink.com 1.10,2013-06-26 14:39:00,
2013-06-26 10:54:00,77.5,69.0,30.00,NNE,22,1.0,3.0,74,0.00,,,0.00,weatherlink.com 1.10,2013-06-26 14:54:00,
2013-06-26 11:09:00,77.4,68.0,30.00,South,169,2.0,5.0,72,0.00,,,0.00,weatherlink.com 1.10,2013-06-26 15:09:00,
2013-06-26 11:24:00,78.0,68.0,30.00,NE,53,2.0,4.0,72,0.00,,,0.00,weatherlink.com 1.10,2013-06-26 15:24:00,
2013-06-26 11:39:00,79.0,68.0,30.00,ESE,122,1.0,5.0,70,0.00,,,0.00,weatherlink.com 1.10,2013-06-26 15:39:00,
2013-06-26 11:54:00,78.3,69.0,30.01,SSE,163,0.0,3.0,73,0.00,,,0.00,weatherlink.com 1.10,2013-06-26 15:54:00,
2013-06-26 12:09:00,77.7,69.0,30.01,SW,229,0.0,4.0,74,0.00,,,0.00,weatherlink.com 1.10,2013-06-26 16:09:00,
2013-06-26 12:24:00,78.3,70.0,30.01,SSW,201,0.0,1.0,75,0.00,,,0.00,weatherlink.com 1.10,2013-06-26 16:24:00,
2013-06-26 12:39:00,78.5,71.0,30.01,SSE,158,0.0,4.0,77,0.00,,,0.00,weatherlink.com 1.10,2013-06-26 16:39:00,
2013-06-26 12:54:00,78.0,70.0,30.02,SW,214,2.0,3.0,77,0.00,,,0.00,weatherlink.com 1.10,2013-06-26 16:54:00,
2013-06-26 13:09:00,77.2,71.0,30.01,SW,225,0.0,2.0,80,0.00,,,0.00,weatherlink.com 1.10,2013-06-26 17:09:00,
2013-06-26 13:24:00,76.1,70.0,30.02,ESE,121,1.0,4.0,80,0.00,,,0.00,weatherlink.com 1.10,2013-06-26 17:24:00,
2013-06-26 13:40:00,75.1,70.0,30.01,SW,218,0.0,4.0,85,0.00,,,0.00,weatherlink.com 1.10,2013-06-26 17:40:00,
2013-06-26 13:55:00,75.0,70.0,30.01,SSW,192,0.0,3.0,85,0.00,,,0.00,weatherlink.com 1.10,2013-06-26 17:55:00,
2013-06-26 14:10:00,75.6,71.0,30.01,South,188,2.0,2.0,85,0.00,,,0.00,weatherlink.com 1.10,2013-06-26 18:10:00,
2013-06-26 14:25:00,76.2,70.0,30.01,SSE,149,0.0,3.0,82,0.00,,,0.00,weatherlink.com 1.10,2013-06-26 18:25:00,
2013-06-26 14:40:00,76.6,71.0,30.01,SSE,153,0.0,1.0,83,0.00,,,0.00,weatherlink.com 1.10,2013-06-26 18:40:00,
2013-06-26 14:55:00,77.1,71.0,30.01,ESE,114,0.0,3.0,81,0.00,,,0.00,weatherlink.com 1.10,2013-06-26 18:55:00,
2013-06-26 15:10:00,77.2,70.0,30.01,ESE,110,1.0,5.0,77,0.00,,,0.00,weatherlink.com 1.10,2013-06-26 19:10:00,
2013-06-26 15:25:00,78.0,70.0,30.00,SE,124,1.0,3.0,76,0.00,,,0.00,weatherlink.com 1.10,2013-06-26 19:25:00,
2013-06-26 15:40:00,78.9,71.0,30.00,ESE,113,0.0,4.0,77,0.00,,,0.00,weatherlink.com 1.10,2013-06-26 19:40:00,
2013-06-26 15:55:00,79.6,72.0,29.99,ESE,118,2.0,2.0,77,0.00,,,0.00,weatherlink.com 1.10,2013-06-26 19:55:00,
2013-06-26 16:10:00,80.2,72.0,29.99,NNE,26,0.0,3.0,76,0.00,,,0.00,weatherlink.com 1.10,2013-06-26 20:10:00,
2013-06-26 16:25:00,81.2,71.0,29.99,South,187,0.0,3.0,70,0.00,,,0.00,weatherlink.com 1.10,2013-06-26 20:25:00,
2013-06-26 16:40:00,81.6,70.0,29.98,SSE,168,1.0,6.0,67,0.00,,,0.00,weatherlink.com 1.10,2013-06-26 20:40:00,
2013-06-26 16:55:00,81.8,72.0,29.98,SSE,168,0.0,2.0,71,0.00,,,0.00,weatherlink.com 1.10,2013-06-26 20:55:00,
2013-06-26 17:10:00,81.4,72.0,29.98,SSE,168,0.0,1.0,72,0.00,,,0.00,weatherlink.com 1.10,2013-06-26 21:10:00,
2013-06-26 17:25:00,80.3,72.0,29.98,SSE,168,0.0,2.0,75,0.00,,,0.00,weatherlink.com 1.10,2013-06-26 21:25:00,
2013-06-26 17:40:00,79.0,72.0,29.98,SSE,168,0.0,1.0,79,0.00,,,0.00,weatherlink.com 1.10,2013-06-26 21:40:00,
2013-06-26 17:55:00,78.0,72.0,29.98,SSE,168,0.0,0.0,82,0.00,,,0.00,weatherlink.com 1.10,2013-06-26 21:55:00,
2013-06-26 18:10:00,77.2,72.0,30.00,SSE,168,0.0,0.0,83,0.00,,,0.00,weatherlink.com 1.10,2013-06-26 22:10:00,
2013-06-26 18:25:00,76.0,71.0,29.99,SSE,168,0.0,1.0,85,0.00,,,0.00,weatherlink.com 1.10,2013-06-26 22:25:00,
2013-06-26 18:40:00,74.6,71.0,30.00,SSE,168,0.0,2.0,89,0.01,,,0.01,weatherlink.com 1.10,2013-06-26 22:40:00,
2013-06-26 18:55:00,73.6,71.0,30.01,SSE,168,0.0,1.0,92,0.03,,,0.03,weatherlink.com 1.10,2013-06-26 22:55:00,
2013-06-26 19:10:00,72.6,70.0,30.01,SE,139,1.0,6.0,91,0.04,,,0.04,weatherlink.com 1.10,2013-06-26 23:10:00,
2013-06-26 19:25:00,72.0,70.0,30.00,WSW,252,0.0,3.0,94,0.05,,,0.05,weatherlink.com 1.10,2013-06-26 23:25:00,
2013-06-26 19:40:00,71.7,70.0,30.00,West,263,0.0,2.0,95,0.05,,,0.06,weatherlink.com 1.10,2013-06-26 23:40:00,
2013-06-26 19:55:00,71.5,70.0,29.99,West,263,0.0,2.0,95,0.03,,,0.06,weatherlink.com 1.10,2013-06-26 23:55:00,
2013-06-26 20:10:00,71.3,70.0,29.98,West,263,0.0,2.0,96,0.02,,,0.06,weatherlink.com 1.10,2013-06-27 00:10:00,
2013-06-26 20:25:00,71.2,70.0,29.98,West,263,0.0,0.0,96,0.01,,,0.06,weatherlink.com 1.10,2013-06-27 00:25:00,
2013-06-26 20:40:00,71.0,70.0,29.98,West,263,0.0,0.0,96,0.00,,,0.06,weatherlink.com 1.10,2013-06-27 00:40:00,
2013-06-26 20:55:00,70.8,70.0,29.98,West,263,0.0,0.0,96,0.00,,,0.06,weatherlink.com 1.10,2013-06-27 00:55:00,
2013-06-26 21:10:00,70.5,70.0,29.99,West,263,0.0,0.0,97,0.00,,,0.06,weatherlink.com 1.10,2013-06-27 01:10:00,
2013-06-26 21:25:00,70.2,69.0,29.99,West,263,0.0,0.0,96,0.00,,,0.06,weatherlink.com 1.10,2013-06-27 01:25:00,
2013-06-26 21:40:00,69.7,69.0,30.00,West,263,0.0,0.0,97,0.00,,,0.06,weatherlink.com 1.10,2013-06-27 01:40:00,
2013-06-26 21:55:00,69.3,69.0,30.00,West,263,0.0,1.0,97,0.00,,,0.06,weatherlink.com 1.10,2013-06-27 01:55:00,
2013-06-26 22:10:00,68.9,68.0,30.00,West,263,0.0,0.0,97,0.00,,,0.06,weatherlink.com 1.10,2013-06-27 02:10:00,
2013-06-26 22:25:00,68.7,68.0,30.01,West,263,0.0,0.0,97,0.00,,,0.06,weatherlink.com 1.10,2013-06-27 02:25:00,
2013-06-26 22:40:00,68.3,68.0,30.01,West,263,0.0,0.0,97,0.00,,,0.06,weatherlink.com 1.10,2013-06-27 02:40:00,
2013-06-26 22:55:00,68.0,67.0,30.01,West,263,0.0,0.0,97,0.00,,,0.06,weatherlink.com 1.10,2013-06-27 02:55:00,
2013-06-26 23:10:00,67.9,67.0,30.02,West,263,1.0,1.0,98,0.00,,,0.06,weatherlink.com 1.10,2013-06-27 03:10:00,
2013-06-26 23:25:00,67.8,67.0,30.02,West,263,0.0,0.0,98,0.00,,,0.06,weatherlink.com 1.10,2013-06-27 03:25:00,
2013-06-26 23:40:00,67.7,67.0,30.01,West,263,0.0,0.0,98,0.00,,,0.06,weatherlink.com 1.10,2013-06-27 03:40:00,
2013-06-26 23:55:00,67.3,67.0,30.01,West,263,0.0,0.0,98,0.00,,,0.06,weatherlink.com 1.10,2013-06-27 03:55:00,